Time,TemperatureF,DewpointF,PressureIn,WindDirection,WindDirectionDegrees,WindSpeedMPH,WindSpeedGustMPH,Humidity,HourlyPrecipIn,Conditions,Clouds,dailyrainin,SoftwareType,DateUTC
2013-03-07 00:00:00,34.3,0.0,29.64,North,0,0.0,0.0,58,0.00,,,0.00,Weather View 32 v70,2013-03-07 06:00:00,
2013-03-07 00:10:00,34.3,0.0,29.64,North,0,0.0,0.0,58,0.00,,,0.00,Weather View 32 v70,2013-03-07 06:10:00,
2013-03-07 00:15:00,34.2,0.0,29.64,North,0,0.0,0.0,58,0.00,,,0.00,Weather View 32 v70,2013-03-07 06:15:00,
2013-03-07 00:20:00,34.0,0.0,29.64,North,0,0.0,0.0,58,0.00,,,0.00,Weather View 32 v70,2013-03-07 06:20:00,
2013-03-07 00:25:00,34.0,0.0,29.64,North,0,0.0,0.0,58,0.00,,,0.00,Weather View 32 v70,2013-03-07 06:25:00,
2013-03-07 00:30:00,33.8,0.0,29.64,North,0,0.0,0.0,59,0.00,,,0.00,Weather View 32 v70,2013-03-07 06:30:00,
2013-03-07 00:40:00,33.6,0.0,29.62,North,0,0.0,0.0,59,0.00,,,0.00,Weather View 32 v70,2013-03-07 06:40:00,
2013-03-07 00:45:00,33.6,0.0,29.62,North,0,0.0,0.0,59,0.00,,,0.00,Weather View 32 v70,2013-03-07 06:45:00,
2013-03-07 00:50:00,33.6,0.0,29.62,North,0,0.0,0.0,59,0.00,,,0.00,Weather View 32 v70,2013-03-07 06:50:00,
2013-03-07 00:55:00,33.6,0.0,29.62,North,0,0.0,0.0,60,0.00,,,0.00,Weather View 32 v70,2013-03-07 06:55:00,
2013-03-07 01:00:00,33.4,0.0,29.63,North,0,0.0,0.0,60,0.00,,,0.00,Weather View 32 v70,2013-03-07 07:00:00,
2013-03-07 01:10:00,33.4,0.0,29.63,North,0,0.0,0.0,60,0.00,,,0.00,Weather View 32 v70,2013-03-07 07:10:00,
2013-03-07 01:15:00,33.4,0.0,29.63,North,0,0.0,0.0,61,0.00,,,0.00,Weather View 32 v70,2013-03-07 07:15:00,
2013-03-07 01:20:00,33.4,0.0,29.65,North,0,0.0,0.0,61,0.00,,,0.00,Weather View 32 v70,2013-03-07 07:20:00,
2013-03-07 01:25:00,33.3,0.0,29.65,North,0,0.0,0.0,61,0.00,,,0.00,Weather View 32 v70,2013-03-07 07:25:00,
2013-03-07 01:30:00,33.3,0.0,29.65,North,0,0.0,0.0,61,0.00,,,0.00,Weather View 32 v70,2013-03-07 07:30:00,
2013-03-07 01:35:00,33.3,0.0,29.65,North,0,0.0,0.0,61,0.00,,,0.00,Weather View 32 v70,2013-03-07 07:35:00,
2013-03-07 01:40:00,33.1,0.0,29.66,North,0,0.0,0.0,61,0.00,,,0.00,Weather View 32 v70,2013-03-07 07:40:00,
2013-03-07 01:50:00,32.9,0.0,29.66,North,0,0.0,0.0,62,0.00,,,0.00,Weather View 32 v70,2013-03-07 07:50:00,
2013-03-07 01:55:00,32.9,0.0,29.66,North,0,0.0,0.0,62,0.00,,,0.00,Weather View 32 v70,2013-03-07 07:55:00,
2013-03-07 02:00:00,32.9,0.0,29.66,North,0,0.0,0.0,62,0.00,,,0.00,Weather View 32 v70,2013-03-07 08:00:00,
2013-03-07 02:05:00,32.7,0.0,29.66,North,0,0.0,0.0,62,0.00,,,0.00,Weather View 32 v70,2013-03-07 08:05:00,
2013-03-07 02:10:00,32.7,0.0,29.66,North,0,0.0,0.0,62,0.00,,,0.00,Weather View 32 v70,2013-03-07 08:10:00,
2013-03-07 02:20:00,32.5,0.0,29.66,North,0,0.0,0.0,63,0.00,,,0.00,Weather View 32 v70,2013-03-07 08:20:00,
2013-03-07 02:25:00,32.5,0.0,29.66,North,0,0.0,0.0,63,0.00,,,0.00,Weather View 32 v70,2013-03-07 08:25:00,
2013-03-07 02:30:00,32.5,0.0,29.66,North,0,0.0,0.0,63,0.00,,,0.00,Weather View 32 v70,2013-03-07 08:30:00,
2013-03-07 02:35:00,32.4,0.0,29.66,North,0,0.0,0.0,63,0.00,,,0.00,Weather View 32 v70,2013-03-07 08:35:00,
2013-03-07 02:40:00,32.5,0.0,29.66,North,0,0.0,0.0,63,0.00,,,0.00,Weather View 32 v70,2013-03-07 08:40:00,
2013-03-07 02:45:00,32.5,0.0,29.66,North,0,0.0,0.0,63,0.00,,,0.00,Weather View 32 v70,2013-03-07 08:45:00,
2013-03-07 02:50:00,32.5,0.0,29.66,North,0,0.0,0.0,64,0.00,,,0.00,Weather View 32 v70,2013-03-07 08:50:00,
2013-03-07 03:00:00,32.4,0.0,29.66,North,0,0.0,0.0,64,0.00,,,0.00,Weather View 32 v70,2013-03-07 09:00:00,
2013-03-07 03:10:00,32.5,0.0,29.66,North,0,0.0,0.0,64,0.00,,,0.00,Weather View 32 v70,2013-03-07 09:10:00,
2013-03-07 03:20:00,32.4,0.0,29.67,North,0,0.0,0.0,65,0.00,,,0.00,Weather View 32 v70,2013-03-07 09:20:00,
2013-03-07 03:25:00,32.5,0.0,29.67,North,0,0.0,0.0,65,0.00,,,0.00,Weather View 32 v70,2013-03-07 09:25:00,
2013-03-07 03:35:00,32.2,0.0,29.67,North,0,0.0,0.0,65,0.00,,,0.00,Weather View 32 v70,2013-03-07 09:35:00,
2013-03-07 03:40:00,32.4,0.0,29.68,North,0,0.0,0.0,65,0.00,,,0.00,Weather View 32 v70,2013-03-07 09:40:00,
2013-03-07 03:50:00,32.4,0.0,29.68,North,0,0.0,0.0,65,0.00,,,0.00,Weather View 32 v70,2013-03-07 09:50:00,
2013-03-07 04:00:00,32.5,0.0,29.66,North,0,0.0,0.0,65,0.00,,,0.00,Weather View 32 v70,2013-03-07 10:00:00,
2013-03-07 04:05:00,32.2,0.0,29.66,North,0,0.0,0.0,65,0.00,,,0.00,Weather View 32 v70,2013-03-07 10:05:00,
2013-03-07 04:10:00,32.2,0.0,29.66,North,0,0.0,0.0,65,0.00,,,0.00,Weather View 32 v70,2013-03-07 10:10:00,
2013-03-07 04:20:00,32.2,0.0,29.65,North,0,0.0,0.0,65,0.00,,,0.00,Weather View 32 v70,2013-03-07 10:20:00,
2013-03-07 04:25:00,32.2,0.0,29.65,North,0,0.0,0.0,65,0.00,,,0.00,Weather View 32 v70,2013-03-07 10:25:00,
2013-03-07 04:30:00,32.2,0.0,29.65,North,0,0.0,0.0,65,0.00,,,0.00,Weather View 32 v70,2013-03-07 10:30:00,
2013-03-07 04:40:00,32.2,0.0,29.66,North,0,0.0,0.0,65,0.00,,,0.00,Weather View 32 v70,2013-03-07 10:40:00,
2013-03-07 04:45:00,32.2,0.0,29.66,North,0,0.0,0.0,65,0.00,,,0.00,Weather View 32 v70,2013-03-07 10:45:00,
2013-03-07 04:50:00,32.0,0.0,29.66,North,0,0.0,0.0,65,0.00,,,0.00,Weather View 32 v70,2013-03-07 10:50:00,
2013-03-07 05:00:00,32.0,0.0,29.68,North,0,0.0,0.0,65,0.00,,,0.00,Weather View 32 v70,2013-03-07 11:00:00,
2013-03-07 05:10:00,31.8,0.0,29.68,North,0,0.0,0.0,66,0.00,,,0.00,Weather View 32 v70,2013-03-07 11:10:00,
2013-03-07 05:15:00,31.8,0.0,29.68,North,0,0.0,0.0,66,0.00,,,0.00,Weather View 32 v70,2013-03-07 11:15:00,
2013-03-07 05:20:00,31.8,0.0,29.68,North,0,0.0,0.0,66,0.00,,,0.00,Weather View 32 v70,2013-03-07 11:20:00,
2013-03-07 05:25:00,31.8,0.0,29.68,North,0,0.0,0.0,66,0.00,,,0.00,Weather View 32 v70,2013-03-07 11:25:00,
2013-03-07 05:35:00,31.8,0.0,29.68,North,0,0.0,0.0,66,0.00,,,0.00,Weather View 32 v70,2013-03-07 11:35:00,
2013-03-07 05:45:00,31.8,0.0,29.68,North,0,0.0,0.0,67,0.00,,,0.00,Weather View 32 v70,2013-03-07 11:45:00,
2013-03-07 05:55:00,31.5,0.0,29.68,North,0,0.0,0.0,67,0.00,,,0.00,Weather View 32 v70,2013-03-07 11:55:00,
2013-03-07 06:00:00,31.5,0.0,29.69,North,0,0.0,0.0,67,0.00,,,0.00,Weather View 32 v70,2013-03-07 12:00:00,
2013-03-07 06:05:00,31.5,0.0,29.69,North,0,0.0,0.0,67,0.00,,,0.00,Weather View 32 v70,2013-03-07 12:05:00,
2013-03-07 06:10:00,31.3,0.0,29.69,North,0,0.0,0.0,67,0.00,,,0.00,Weather View 32 v70,2013-03-07 12:10:00,
2013-03-07 06:15:00,31.5,0.0,29.69,North,0,0.0,0.0,68,0.00,,,0.00,Weather View 32 v70,2013-03-07 12:15:00,
2013-03-07 06:20:00,31.6,0.0,29.68,North,0,0.0,0.0,67,0.00,,,0.00,Weather View 32 v70,2013-03-07 12:20:00,
2013-03-07 06:25:00,31.8,0.0,29.68,North,0,0.0,0.0,67,0.00,,,0.00,Weather View 32 v70,2013-03-07 12:25:00,
2013-03-07 06:30:00,31.6,0.0,29.68,North,0,0.0,0.0,67,0.00,,,0.00,Weather View 32 v70,2013-03-07 12:30:00,
2013-03-07 06:40:00,31.3,0.0,29.69,North,0,0.0,0.0,67,0.00,,,0.00,Weather View 32 v70,2013-03-07 12:40:00,
2013-03-07 06:45:00,31.5,0.0,29.69,North,0,0.0,0.0,67,0.00,,,0.00,Weather View 32 v70,2013-03-07 12:45:00,
2013-03-07 06:55:00,31.5,0.0,29.69,North,0,0.0,0.0,67,0.00,,,0.00,Weather View 32 v70,2013-03-07 12:55:00,
2013-03-07 07:00:00,31.5,0.0,29.69,North,0,0.0,0.0,67,0.00,,,0.00,Weather View 32 v70,2013-03-07 13:00:00,
2013-03-07 07:05:00,31.5,0.0,29.69,North,0,0.0,0.0,67,0.00,,,0.00,Weather View 32 v70,2013-03-07 13:05:00,
2013-03-07 07:10:00,31.8,0.0,29.69,North,0,0.0,0.0,68,0.00,,,0.00,Weather View 32 v70,2013-03-07 13:10:00,
2013-03-07 07:20:00,32.0,0.0,29.69,North,0,0.0,0.0,68,0.00,,,0.00,Weather View 32 v70,2013-03-07 13:20:00,
2013-03-07 07:30:00,32.5,0.0,29.69,North,0,0.0,0.0,67,0.00,,,0.00,Weather View 32 v70,2013-03-07 13:30:00,
2013-03-07 07:35:00,32.7,0.0,29.69,North,0,0.0,0.0,67,0.00,,,0.00,Weather View 32 v70,2013-03-07 13:35:00,
2013-03-07 07:40:00,32.9,0.0,29.70,North,0,0.0,0.0,67,0.00,,,0.00,Weather View 32 v70,2013-03-07 13:40:00,
2013-03-07 07:45:00,33.1,0.0,29.70,North,0,0.0,0.0,66,0.00,,,0.00,Weather View 32 v70,2013-03-07 13:45:00,
2013-03-07 07:50:00,33.4,0.0,29.70,North,0,0.0,0.0,66,0.00,,,0.00,Weather View 32 v70,2013-03-07 13:50:00,
2013-03-07 07:55:00,33.4,0.0,29.70,North,0,0.0,0.0,66,0.00,,,0.00,Weather View 32 v70,2013-03-07 13:55:00,
2013-03-07 08:00:00,33.6,0.0,29.70,North,0,0.0,0.0,66,0.00,,,0.00,Weather View 32 v70,2013-03-07 14:00:00,
2013-03-07 08:10:00,34.3,0.0,29.70,North,0,0.0,0.0,65,0.00,,,0.00,Weather View 32 v70,2013-03-07 14:10:00,
2013-03-07 08:20:00,35.2,0.0,29.71,North,0,0.0,0.0,63,0.00,,,0.00,Weather View 32 v70,2013-03-07 14:20:00,
2013-03-07 08:25:00,35.2,0.0,29.71,North,0,0.0,0.0,63,0.00,,,0.00,Weather View 32 v70,2013-03-07 14:25:00,
2013-03-07 08:30:00,35.2,0.0,29.71,North,0,0.0,0.0,63,0.00,,,0.00,Weather View 32 v70,2013-03-07 14:30:00,
2013-03-07 08:40:00,35.8,0.0,29.71,North,0,0.0,0.0,63,0.00,,,0.00,Weather View 32 v70,2013-03-07 14:40:00,
2013-03-07 08:45:00,35.8,0.0,29.71,North,0,0.0,0.0,62,0.00,,,0.00,Weather View 32 v70,2013-03-07 14:45:00,
2013-03-07 08:50:00,36.1,0.0,29.71,North,0,0.0,0.0,62,0.00,,,0.00,Weather View 32 v70,2013-03-07 14:50:00,
2013-03-07 09:00:00,36.5,0.0,29.72,North,0,0.0,0.0,62,0.00,,,0.00,Weather View 32 v70,2013-03-07 15:00:00,
2013-03-07 09:05:00,36.9,0.0,29.72,North,0,0.0,0.0,61,0.00,,,0.00,Weather View 32 v70,2013-03-07 15:05:00,
2013-03-07 09:15:00,36.9,0.0,29.72,North,0,0.0,0.0,61,0.00,,,0.00,Weather View 32 v70,2013-03-07 15:15:00,
2013-03-07 09:20:00,36.9,0.0,29.72,North,0,0.0,0.0,60,0.00,,,0.00,Weather View 32 v70,2013-03-07 15:20:00,
2013-03-07 09:30:00,37.6,0.0,29.72,North,0,0.0,0.0,59,0.00,,,0.00,Weather View 32 v70,2013-03-07 15:30:00,
2013-03-07 09:35:00,37.6,0.0,29.72,North,0,0.0,0.0,59,0.00,,,0.00,Weather View 32 v70,2013-03-07 15:35:00,
2013-03-07 09:40:00,37.8,0.0,29.72,North,0,0.0,0.0,59,0.00,,,0.00,Weather View 32 v70,2013-03-07 15:40:00,
2013-03-07 09:50:00,38.1,0.0,29.72,North,0,0.0,0.0,59,0.00,,,0.00,Weather View 32 v70,2013-03-07 15:50:00,
2013-03-07 09:55:00,38.1,0.0,29.72,North,0,0.0,0.0,59,0.00,,,0.00,Weather View 32 v70,2013-03-07 15:55:00,
2013-03-07 10:00:00,38.3,0.0,29.71,North,0,0.0,0.0,59,0.00,,,0.00,Weather View 32 v70,2013-03-07 16:00:00,
2013-03-07 10:05:00,38.5,0.0,29.71,North,0,0.0,0.0,59,0.00,,,0.00,Weather View 32 v70,2013-03-07 16:05:00,
2013-03-07 10:15:00,39.2,0.0,29.71,North,0,0.0,0.0,58,0.00,,,0.00,Weather View 32 v70,2013-03-07 16:15:00,
2013-03-07 10:20:00,39.2,0.0,29.72,North,0,0.0,0.0,59,0.00,,,0.00,Weather View 32 v70,2013-03-07 16:20:00,
2013-03-07 10:25:00,39.7,0.0,29.72,North,0,0.0,0.0,57,0.00,,,0.00,Weather View 32 v70,2013-03-07 16:25:00,
2013-03-07 10:35:00,39.9,0.0,29.72,North,0,0.0,0.0,57,0.00,,,0.00,Weather View 32 v70,2013-03-07 16:35:00,
2013-03-07 10:40:00,39.9,0.0,29.71,North,0,0.0,0.0,58,0.00,,,0.00,Weather View 32 v70,2013-03-07 16:40:00,
2013-03-07 10:50:00,40.5,0.0,29.71,North,0,0.0,0.0,58,0.00,,,0.00,Weather View 32 v70,2013-03-07 16:50:00,
2013-03-07 11:00:00,41.2,0.0,29.71,North,0,0.0,0.0,57,0.00,,,0.00,Weather View 32 v70,2013-03-07 17:00:00,
2013-03-07 11:05:00,41.2,0.0,29.71,North,0,0.0,0.0,56,0.00,,,0.00,Weather View 32 v70,2013-03-07 17:05:00,
2013-03-07 11:10:00,41.0,0.0,29.71,North,0,0.0,0.0,56,0.00,,,0.00,Weather View 32 v70,2013-03-07 17:10:00,
2013-03-07 11:15:00,40.8,0.0,29.71,North,0,0.0,0.0,56,0.00,,,0.00,Weather View 32 v70,2013-03-07 17:15:00,
2013-03-07 11:25:00,41.2,0.0,29.71,North,0,0.0,0.0,56,0.00,,,0.00,Weather View 32 v70,2013-03-07 17:25:00,
2013-03-07 11:30:00,41.2,0.0,29.71,North,0,0.0,0.0,55,0.00,,,0.00,Weather View 32 v70,2013-03-07 17:30:00,
2013-03-07 11:40:00,41.4,0.0,29.70,North,0,0.0,0.0,55,0.00,,,0.00,Weather View 32 v70,2013-03-07 17:40:00,
2013-03-07 11:45:00,41.5,0.0,29.70,North,0,0.0,0.0,54,0.00,,,0.00,Weather View 32 v70,2013-03-07 17:45:00,
2013-03-07 11:50:00,41.5,0.0,29.70,North,0,0.0,0.0,55,0.00,,,0.00,Weather View 32 v70,2013-03-07 17:50:00,
2013-03-07 12:00:00,41.4,0.0,29.69,North,0,0.0,0.0,54,0.00,,,0.00,Weather View 32 v70,2013-03-07 18:00:00,
2013-03-07 12:05:00,41.4,0.0,29.69,North,0,0.0,0.0,54,0.00,,,0.00,Weather View 32 v70,2013-03-07 18:05:00,
2013-03-07 12:10:00,41.9,0.0,29.69,North,0,0.0,0.0,55,0.00,,,0.00,Weather View 32 v70,2013-03-07 18:10:00,
2013-03-07 12:20:00,41.7,0.0,29.68,North,0,0.0,0.0,55,0.00,,,0.00,Weather View 32 v70,2013-03-07 18:20:00,
2013-03-07 12:25:00,41.9,0.0,29.68,North,0,0.0,0.0,54,0.00,,,0.00,Weather View 32 v70,2013-03-07 18:25:00,
2013-03-07 12:30:00,42.1,0.0,29.68,North,0,0.0,0.0,54,0.00,,,0.00,Weather View 32 v70,2013-03-07 18:30:00,
2013-03-07 12:35:00,42.1,0.0,29.68,North,0,0.0,0.0,53,0.00,,,0.00,Weather View 32 v70,2013-03-07 18:35:00,
2013-03-07 12:40:00,42.3,0.0,29.68,North,0,0.0,0.0,53,0.00,,,0.00,Weather View 32 v70,2013-03-07 18:40:00,
2013-03-07 12:45:00,42.6,0.0,29.68,North,0,0.0,0.0,53,0.00,,,0.00,Weather View 32 v70,2013-03-07 18:45:00,
2013-03-07 12:50:00,42.6,0.0,29.68,North,0,0.0,0.0,53,0.00,,,0.00,Weather View 32 v70,2013-03-07 18:50:00,
2013-03-07 13:00:00,43.0,0.0,29.67,North,0,0.0,0.0,53,0.00,,,0.00,Weather View 32 v70,2013-03-07 19:00:00,
2013-03-07 13:05:00,42.8,0.0,29.67,North,0,0.0,0.0,52,0.00,,,0.00,Weather View 32 v70,2013-03-07 19:05:00,
2013-03-07 13:10:00,43.0,0.0,29.67,North,0,0.0,0.0,53,0.00,,,0.00,Weather View 32 v70,2013-03-07 19:10:00,
2013-03-07 13:20:00,42.8,0.0,29.65,North,0,0.0,0.0,52,0.00,,,0.00,Weather View 32 v70,2013-03-07 19:20:00,
2013-03-07 13:25:00,43.2,0.0,29.65,North,0,0.0,0.0,52,0.00,,,0.00,Weather View 32 v70,2013-03-07 19:25:00,
2013-03-07 13:35:00,43.3,0.0,29.65,North,0,0.0,0.0,52,0.00,,,0.00,Weather View 32 v70,2013-03-07 19:35:00,
2013-03-07 13:40:00,43.7,0.0,29.65,North,0,0.0,0.0,52,0.00,,,0.00,Weather View 32 v70,2013-03-07 19:40:00,
2013-03-07 13:45:00,43.7,0.0,29.65,North,0,0.0,0.0,52,0.00,,,0.00,Weather View 32 v70,2013-03-07 19:45:00,
2013-03-07 13:55:00,43.9,0.0,29.65,North,0,0.0,0.0,52,0.00,,,0.00,Weather View 32 v70,2013-03-07 19:55:00,
2013-03-07 14:00:00,44.1,0.0,29.64,North,0,0.0,0.0,52,0.00,,,0.00,Weather View 32 v70,2013-03-07 20:00:00,
2013-03-07 14:05:00,44.4,0.0,29.64,North,0,0.0,0.0,51,0.00,,,0.00,Weather View 32 v70,2013-03-07 20:05:00,
2013-03-07 14:10:00,44.2,0.0,29.64,North,0,0.0,0.0,51,0.00,,,0.00,Weather View 32 v70,2013-03-07 20:10:00,
2013-03-07 14:15:00,44.2,0.0,29.64,North,0,0.0,0.0,52,0.00,,,0.00,Weather View 32 v70,2013-03-07 20:15:00,
2013-03-07 14:25:00,44.4,0.0,29.64,North,0,0.0,0.0,51,0.00,,,0.00,Weather View 32 v70,2013-03-07 20:25:00,
2013-03-07 14:30:00,44.4,0.0,29.64,North,0,0.0,0.0,52,0.00,,,0.00,Weather View 32 v70,2013-03-07 20:30:00,
2013-03-07 14:40:00,44.8,0.0,29.63,North,0,0.0,0.0,51,0.00,,,0.00,Weather View 32 v70,2013-03-07 20:40:00,
2013-03-07 14:45:00,45.1,0.0,29.63,North,0,0.0,0.0,51,0.00,,,0.00,Weather View 32 v70,2013-03-07 20:45:00,
2013-03-07 14:50:00,45.0,0.0,29.63,North,0,0.0,0.0,51,0.00,,,0.00,Weather View 32 v70,2013-03-07 20:50:00,
2013-03-07 14:55:00,45.1,0.0,29.63,North,0,0.0,0.0,51,0.00,,,0.00,Weather View 32 v70,2013-03-07 20:55:00,
2013-03-07 15:00:00,45.0,0.0,29.63,North,0,0.0,0.0,50,0.00,,,0.00,Weather View 32 v70,2013-03-07 21:00:00,
2013-03-07 15:05:00,45.0,0.0,29.63,North,0,0.0,0.0,50,0.00,,,0.00,Weather View 32 v70,2013-03-07 21:05:00,
2013-03-07 15:15:00,45.5,0.0,29.63,North,0,0.0,0.0,50,0.00,,,0.00,Weather View 32 v70,2013-03-07 21:15:00,
2013-03-07 15:20:00,45.5,0.0,29.63,North,0,0.0,0.0,50,0.00,,,0.00,Weather View 32 v70,2013-03-07 21:20:00,
2013-03-07 15:30:00,45.5,0.0,29.63,North,0,0.0,0.0,50,0.00,,,0.00,Weather View 32 v70,2013-03-07 21:30:00,
2013-03-07 15:35:00,45.5,0.0,29.63,North,0,0.0,0.0,50,0.00,,,0.00,Weather View 32 v70,2013-03-07 21:35:00,
2013-03-07 15:40:00,45.5,0.0,29.63,North,0,0.0,0.0,50,0.00,,,0.00,Weather View 32 v70,2013-03-07 21:40:00,
2013-03-07 15:50:00,45.3,0.0,29.63,North,0,0.0,0.0,49,0.00,,,0.00,Weather View 32 v70,2013-03-07 21:50:00,
2013-03-07 16:00:00,45.5,0.0,29.62,North,0,0.0,0.0,49,0.00,,,0.00,Weather View 32 v70,2013-03-07 22:00:00,
2013-03-07 16:05:00,45.5,0.0,29.62,North,0,0.0,0.0,49,0.00,,,0.00,Weather View 32 v70,2013-03-07 22:05:00,
2013-03-07 16:10:00,45.5,0.0,29.62,North,0,0.0,0.0,49,0.00,,,0.00,Weather View 32 v70,2013-03-07 22:10:00,
2013-03-07 16:20:00,45.7,0.0,29.62,North,0,0.0,0.0,49,0.00,,,0.00,Weather View 32 v70,2013-03-07 22:20:00,
2013-03-07 16:30:00,45.5,0.0,29.62,North,0,0.0,0.0,48,0.00,,,0.00,Weather View 32 v70,2013-03-07 22:30:00,
2013-03-07 16:40:00,45.5,0.0,29.62,North,0,0.0,0.0,49,0.00,,,0.00,Weather View 32 v70,2013-03-07 22:40:00,
2013-03-07 16:45:00,45.5,0.0,29.62,North,0,0.0,0.0,50,0.00,,,0.00,Weather View 32 v70,2013-03-07 22:45:00,
2013-03-07 16:50:00,45.5,0.0,29.62,North,0,0.0,0.0,50,0.00,,,0.00,Weather View 32 v70,2013-03-07 22:50:00,
2013-03-07 16:55:00,45.5,0.0,29.62,North,0,0.0,0.0,50,0.00,,,0.00,Weather View 32 v70,2013-03-07 22:55:00,
2013-03-07 17:00:00,45.5,0.0,29.61,North,0,0.0,0.0,50,0.00,,,0.00,Weather View 32 v70,2013-03-07 23:00:00,
2013-03-07 17:05:00,45.1,0.0,29.61,North,0,0.0,0.0,50,0.00,,,0.00,Weather View 32 v70,2013-03-07 23:05:00,
2013-03-07 17:10:00,45.1,0.0,29.61,North,0,0.0,0.0,50,0.00,,,0.00,Weather View 32 v70,2013-03-07 23:10:00,
2013-03-07 17:20:00,45.0,0.0,29.63,North,0,0.0,0.0,50,0.00,,,0.00,Weather View 32 v70,2013-03-07 23:20:00,
2013-03-07 17:25:00,45.1,0.0,29.63,North,0,0.0,0.0,50,0.00,,,0.00,Weather View 32 v70,2013-03-07 23:25:00,
2013-03-07 17:30:00,44.8,0.0,29.63,North,0,0.0,0.0,51,0.00,,,0.00,Weather View 32 v70,2013-03-07 23:30:00,
2013-03-07 17:40:00,44.6,0.0,29.62,North,0,0.0,0.0,51,0.00,,,0.00,Weather View 32 v70,2013-03-07 23:40:00,
2013-03-07 17:50:00,44.2,0.0,29.62,North,0,0.0,0.0,51,0.00,,,0.00,Weather View 32 v70,2013-03-07 23:50:00,
2013-03-07 17:55:00,44.2,0.0,29.62,North,0,0.0,0.0,51,0.00,,,0.00,Weather View 32 v70,2013-03-07 23:55:00,
2013-03-07 18:00:00,44.2,0.0,29.63,North,0,0.0,0.0,51,0.00,,,0.00,Weather View 32 v70,2013-03-08 00:00:00,
2013-03-07 18:10:00,44.1,0.0,29.63,North,0,0.0,0.0,51,0.00,,,0.00,Weather View 32 v70,2013-03-08 00:10:00,
2013-03-07 18:20:00,44.1,0.0,29.63,North,0,0.0,0.0,52,0.00,,,0.00,Weather View 32 v70,2013-03-08 00:20:00,
2013-03-07 18:30:00,43.7,0.0,29.63,North,0,0.0,0.0,54,0.00,,,0.00,Weather View 32 v70,2013-03-08 00:30:00,
2013-03-07 18:35:00,43.3,0.0,29.63,North,0,0.0,0.0,55,0.00,,,0.00,Weather View 32 v70,2013-03-08 00:35:00,
2013-03-07 18:40:00,43.0,0.0,29.63,North,0,0.0,0.0,57,0.00,,,0.00,Weather View 32 v70,2013-03-08 00:40:00,
2013-03-07 18:50:00,42.4,0.0,29.63,North,0,0.0,0.0,58,0.00,,,0.00,Weather View 32 v70,2013-03-08 00:50:00,
2013-03-07 18:55:00,42.4,0.0,29.63,North,0,0.0,0.0,59,0.00,,,0.00,Weather View 32 v70,2013-03-08 00:55:00,
2013-03-07 19:05:00,42.1,0.0,29.64,North,0,0.0,0.0,60,0.00,,,0.00,Weather View 32 v70,2013-03-08 01:05:00,
2013-03-07 19:11:00,41.9,0.0,29.64,North,0,0.0,0.0,60,0.00,,,0.00,Weather View 32 v70,2013-03-08 01:11:00,
2013-03-07 19:20:00,41.7,0.0,29.63,North,0,0.0,0.0,61,0.00,,,0.00,Weather View 32 v70,2013-03-08 01:20:00,
2013-03-07 19:30:00,41.5,0.0,29.63,North,0,0.0,0.0,61,0.00,,,0.00,Weather View 32 v70,2013-03-08 01:30:00,
2013-03-07 19:40:00,41.4,0.0,29.63,North,0,0.0,0.0,61,0.00,,,0.00,Weather View 32 v70,2013-03-08 01:40:00,
2013-03-07 19:45:00,41.2,0.0,29.63,North,0,0.0,0.0,62,0.00,,,0.00,Weather View 32 v70,2013-03-08 01:45:00,
2013-03-07 19:55:00,41.0,0.0,29.63,North,0,0.0,0.0,62,0.00,,,0.00,Weather View 32 v70,2013-03-08 01:55:00,
2013-03-07 20:05:00,40.6,0.0,29.63,North,0,0.0,0.0,62,0.00,,,0.00,Weather View 32 v70,2013-03-08 02:05:00,
2013-03-07 20:11:00,40.6,0.0,29.63,North,0,0.0,0.0,63,0.00,,,0.00,Weather View 32 v70,2013-03-08 02:11:00,
2013-03-07 20:20:00,40.5,0.0,29.64,North,0,0.0,0.0,63,0.00,,,0.00,Weather View 32 v70,2013-03-08 02:20:00,
2013-03-07 20:30:00,40.5,0.0,29.64,North,0,0.0,0.0,63,0.00,,,0.00,Weather View 32 v70,2013-03-08 02:30:00,
2013-03-07 20:40:00,39.9,0.0,29.64,North,0,0.0,0.0,63,0.00,,,0.00,Weather View 32 v70,2013-03-08 02:40:00,
2013-03-07 20:45:00,39.9,0.0,29.64,North,0,0.0,0.0,63,0.00,,,0.00,Weather View 32 v70,2013-03-08 02:45:00,
2013-03-07 20:50:00,39.9,0.0,29.64,North,0,0.0,0.0,63,0.00,,,0.00,Weather View 32 v70,2013-03-08 02:50:00,
2013-03-07 20:55:00,39.9,0.0,29.64,North,0,0.0,0.0,63,0.00,,,0.00,Weather View 32 v70,2013-03-08 02:55:00,
2013-03-07 21:05:00,39.7,0.0,29.64,North,0,0.0,0.0,63,0.00,,,0.00,Weather View 32 v70,2013-03-08 03:05:00,
2013-03-07 21:12:00,39.7,0.0,29.64,North,0,0.0,0.0,63,0.00,,,0.00,Weather View 32 v70,2013-03-08 03:12:00,
2013-03-07 21:20:00,39.6,0.0,29.65,North,0,0.0,0.0,63,0.00,,,0.00,Weather View 32 v70,2013-03-08 03:20:00,
2013-03-07 21:30:00,39.4,0.0,29.65,North,0,0.0,0.0,63,0.00,,,0.00,Weather View 32 v70,2013-03-08 03:30:00,
2013-03-07 21:40:00,39.2,0.0,29.65,North,0,0.0,0.0,63,0.00,,,0.00,Weather View 32 v70,2013-03-08 03:40:00,
2013-03-07 21:45:00,39.0,0.0,29.65,North,0,0.0,0.0,63,0.00,,,0.00,Weather View 32 v70,2013-03-08 03:45:00,
2013-03-07 21:50:00,39.0,0.0,29.65,North,0,0.0,0.0,63,0.00,,,0.00,Weather View 32 v70,2013-03-08 03:50:00,
2013-03-07 21:55:00,39.0,0.0,29.65,North,0,0.0,0.0,64,0.00,,,0.00,Weather View 32 v70,2013-03-08 03:55:00,
2013-03-07 22:05:00,38.7,0.0,29.65,North,0,0.0,0.0,63,0.00,,,0.00,Weather View 32 v70,2013-03-08 04:05:00,
2013-03-07 22:12:00,38.5,0.0,29.65,North,0,0.0,0.0,64,0.00,,,0.00,Weather View 32 v70,2013-03-08 04:12:00,
2013-03-07 22:20:00,38.5,0.0,29.65,North,0,0.0,0.0,64,0.00,,,0.00,Weather View 32 v70,2013-03-08 04:20:00,
2013-03-07 22:25:00,38.3,0.0,29.65,North,0,0.0,0.0,65,0.00,,,0.00,Weather View 32 v70,2013-03-08 04:25:00,
2013-03-07 22:35:00,38.1,0.0,29.65,North,0,0.0,0.0,65,0.00,,,0.00,Weather View 32 v70,2013-03-08 04:35:00,
2013-03-07 22:40:00,38.3,0.0,29.65,North,0,0.0,0.0,65,0.00,,,0.00,Weather View 32 v70,2013-03-08 04:40:00,
2013-03-07 22:50:00,37.9,0.0,29.65,North,0,0.0,0.0,66,0.00,,,0.00,Weather View 32 v70,2013-03-08 04:50:00,
2013-03-07 23:00:00,37.9,0.0,29.66,North,0,0.0,0.0,66,0.00,,,0.00,Weather View 32 v70,2013-03-08 05:00:00,
2013-03-07 23:05:00,37.8,0.0,29.66,North,0,0.0,0.0,66,0.00,,,0.00,Weather View 32 v70,2013-03-08 05:05:00,
2013-03-07 23:13:00,37.9,0.0,29.66,North,0,0.0,0.0,66,0.00,,,0.00,Weather View 32 v70,2013-03-08 05:13:00,
2013-03-07 23:20:00,37.6,0.0,29.66,North,0,0.0,0.0,66,0.00,,,0.00,Weather View 32 v70,2013-03-08 05:20:00,
2013-03-07 23:30:00,37.6,0.0,29.66,North,0,0.0,0.0,66,0.00,,,0.00,Weather View 32 v70,2013-03-08 05:30:00,
2013-03-07 23:35:00,37.4,0.0,29.66,North,0,0.0,0.0,66,0.00,,,0.00,Weather View 32 v70,2013-03-08 05:35:00,
2013-03-07 23:45:00,37.2,0.0,29.67,North,0,0.0,0.0,66,0.00,,,0.00,Weather View 32 v70,2013-03-08 05:45:00,
2013-03-07 23:50:00,37.2,0.0,29.67,North,0,0.0,0.0,66,0.00,,,0.00,Weather View 32 v70,2013-03-08 05:50:00,